Location: Pacheco
(37.9835°N, 122.0752°W)
Time: 10:42:21
(UTC+00:00)

Cosmos 1151 Rocket - Pass Details

Date: 13 April 2024
Orbit: 588 x 611 km, 82.5° (Epoch: 24 May)

Event Time Altitude Azimuth Distance (km) Brightness Sun altitude
Exits shadow 12:10:23 27° 275° (W) 1,170 4.0 -16.5°
Maximum altitude 12:10:44 27° 284° (WNW) 1,162 4.0 -16.4°
Drops below altitude 10° 12:14:25 10° 343° (NNW) 1,952 5.7 -15.8°
Sets 12:16:56 0° 355° (N) 2,864 6.8 -15.3°
